Fairbanks Eiels, AK

4:18 AM AKDT on July 29, 2017 (GMT -0800)
Eielson Air Force Base

Weather History for PAEI - September, 2012

Change the Weather History Date:

Sunday, September 23, 2012

  Actual Average Record
Temperature  
Mean Temperature 52 °F -  
Max Temperature 62 °F 48 °F 68 °F (1952)
Min Temperature 41 °F 31 °F 8 °F (1992)
Degree Days  
Heating Degree Days 13    
Growing Degree Days 2 (Base 50)    
Moisture  
Dew Point 40 °F    
Average Humidity 64    
Maximum Humidity 87    
Minimum Humidity 37    
Precipitation  
Precipitation 0.00 in - - ()
Sea Level Pressure  
Sea Level Pressure 29.49 in    
Wind  
Wind Speed 4 mph (SSW)    
Max Wind Speed 17 mph    
Max Gust Speed 26 mph    
Visibility 10 miles    
Events Rain    
Averages and records for this station are not official NWS values.
T = Trace of Precipitation, MM = Missing Value Source: NWS Daily Summary

Daily Weather History Graph

Daily Weather History Graph

Search for Another Location

Airport or City:

Trip Planner

Search our weather history database for the weather conditions in past years. The results will help you decide how hot, cold, wet, or windy it might be!

Date:

Astronomy

Sep. 23, 2012 Rise Set
Actual Time 7:36 AM AKDT 7:43 PM AKDT
Civil Twilight 6:47 AM AKDT 8:31 PM AKDT
Nautical Twilight 5:47 AM AKDT 9:30 PM AKDT
Astronomical Twilight 4:39 AM AKDT 10:37 PM AKDT
Moon 5:50 PM AKDT (9/23) No Moon Set
Length of Visible Light 13h 44m
Length of Day
12h 06m
First Quarter, 61% of the Moon is Illuminated
Sep 23
First Quarter
Sep 29
Full
Oct 7
Last Quarter
Oct 15
New
Oct 21
First Quarter

Hourly Weather History & Observations

Time (AKDT) Temp. Windchill Dew Point Humidity Pressure Visibility Wind Dir Wind Speed Gust Speed Precip Events Conditions
12:55 AM 58.8 °F - 43.2 °F 56% 29.33 in 10.0 mi Calm Calm - N/A   Overcast
1:55 AM 56.8 °F - 44.1 °F 62% 29.35 in 10.0 mi Calm Calm - N/A   Scattered Clouds
2:55 AM 55.2 °F - 44.2 °F 67% 29.35 in 10.0 mi Calm Calm - N/A   Scattered Clouds
3:55 AM 53.8 °F - 44.1 °F 70% 29.36 in 10.0 mi Calm Calm - N/A   Overcast
4:55 AM 54.3 °F - 40.3 °F 59% 29.35 in 10.0 mi South 3.5 mph - N/A   Partly Cloudy
5:55 AM 48.0 °F - 41.4 °F 78% 29.37 in 10.0 mi North - - N/A   Partly Cloudy
6:55 AM 46.9 °F - 41.4 °F 81% 29.38 in 10.0 mi North - - N/A   Clear
7:55 AM 44.8 °F - 40.1 °F 84% 29.39 in 10.0 mi Calm Calm - N/A   Scattered Clouds
8:55 AM 49.3 °F - 42.6 °F 78% 29.40 in 10.0 mi SSE 5.8 mph - N/A   Clear
9:55 AM 58.8 °F - 41.0 °F 52% 29.41 in 10.0 mi Calm Calm - N/A   Clear
10:55 AM 60.6 °F - 35.2 °F 39% 29.41 in 10.0 mi SSE 9.2 mph - N/A   Clear
11:55 AM 62.2 °F - 35.6 °F 37% 29.42 in 10.0 mi SE 11.5 mph - N/A   Clear
12:55 PM 62.6 °F - 35.6 °F 37% 29.43 in 10.0 mi SE 12.7 mph - N/A   Partly Cloudy
1:55 PM 61.7 °F - 36.7 °F 39% 29.45 in 10.0 mi SSE 9.2 mph - N/A   Clear
2:55 PM 62.4 °F - 36.3 °F 38% 29.44 in 10.0 mi SE 13.8 mph - N/A   Partly Cloudy
3:55 PM 59.4 °F - 40.3 °F 49% 29.47 in 10.0 mi Calm Calm - N/A   Clear
4:55 PM 56.7 °F - 42.4 °F 59% 29.48 in 10.0 mi WNW 3.5 mph - N/A   Partly Cloudy
5:55 PM 56.3 °F - 42.3 °F 59% 29.50 in 10.0 mi Calm Calm - N/A   Partly Cloudy
6:55 PM 55.0 °F - 41.2 °F 60% 29.51 in 10.0 mi Calm Calm - N/A   Overcast
7:55 PM 52.3 °F - 38.8 °F 60% 29.55 in 10.0 mi Variable 6.9 mph - N/A   Scattered Clouds
8:55 PM 49.1 °F - 42.8 °F 79% 29.63 in 10.0 mi WNW 11.5 mph 23.0 mph N/A   Overcast
9:06 PM 48.2 °F - 42.8 °F 82% 29.65 in 10.0 mi WNW 9.2 mph 26.5 mph N/A   Overcast
9:55 PM 44.8 °F 37.4 °F 40.3 °F 84% 29.70 in 10.0 mi WNW 17.3 mph 21.9 mph N/A   Overcast
10:49 PM 42.8 °F 35.4 °F 39.2 °F 87% 29.75 in 10.0 mi West 15.0 mph - N/A   Overcast
10:55 PM 42.6 °F 35.2 °F 38.5 °F 85% 29.75 in 10.0 mi West 15.0 mph - 0.00 in Rain Light Rain
11:55 PM 41.4 °F 36.8 °F 37.8 °F 87% 29.80 in 10.0 mi Variable 6.9 mph - 0.00 in   Overcast